N345LC KJFK-KBOS

Flight info

Callsign N345LC
Flight time 0h 34m
Altitude 21000
Route MERIT ROBUC3
Aircraft GLF5/M-SBDE2E3FGHIJ4J5M1RWXY/LB1D1

Departure

Time 2026-05-09 02:41
Airport John F. Kennedy International Airport (KJFK)

Arrival

Time 2026-05-09 03:16
Airport Boston Logan International Airport (KBOS)
Time Latitude Longitude Altitude Speed Heading
2026-05-09 02:26 40.64904 -73.81049 14 ft 0 kts 301°
2026-05-09 02:30 40.64909 -73.81060 14 ft 7 kts 301°
2026-05-09 02:30 40.64930 -73.81121 15 ft 6 kts 303°
2026-05-09 02:31 40.64958 -73.81163 14 ft 5 kts 297°
2026-05-09 02:31 40.64958 -73.81181 14 ft 0 kts 236°
2026-05-09 02:36 40.64940 -73.81207 14 ft 18 kts 213°
2026-05-09 02:37 40.64792 -73.80970 14 ft 54 kts 121°
2026-05-09 02:37 40.64639 -73.80637 14 ft 9 kts 120°
2026-05-09 02:37 40.64550 -73.80441 15 ft 30 kts 121°
2026-05-09 02:37 40.64422 -73.80157 15 ft 37 kts 120°
2026-05-09 02:38 40.64310 -73.79913 14 ft 26 kts 135°
2026-05-09 02:38 40.64191 -73.79752 14 ft 25 kts 114°
2026-05-09 02:38 40.64089 -73.79533 13 ft 30 kts 121°
2026-05-09 02:38 40.63971 -73.79280 14 ft 33 kts 121°
2026-05-09 02:39 40.63847 -73.79006 14 ft 36 kts 120°
2026-05-09 02:39 40.63679 -73.78637 11 ft 37 kts 121°
2026-05-09 02:39 40.63524 -73.78293 12 ft 45 kts 121°
2026-05-09 02:39 40.63461 -73.78175 11 ft 8 kts 167°
2026-05-09 02:40 40.63421 -73.78204 11 ft 6 kts 207°
2026-05-09 02:40 40.63388 -73.78226 11 ft 0 kts 207°
2026-05-09 02:40 40.63363 -73.78243 11 ft 13 kts 206°
2026-05-09 02:40 40.63352 -73.78393 11 ft 33 kts 299°
2026-05-09 02:41 40.63634 -73.79015 11 ft 124 kts 300°
2026-05-09 02:41 40.64203 -73.80268 62 ft 186 kts 300°
2026-05-09 02:41 40.64983 -73.81822 424 ft 222 kts 314°
2026-05-09 02:41 40.66243 -73.82974 1110 ft 224 kts 338°
2026-05-09 02:42 40.67752 -73.83369 1881 ft 227 kts 358°
2026-05-09 02:42 40.69328 -73.83360 2247 ft 228 kts 342°
2026-05-09 02:42 40.70604 -73.84497 2703 ft 220 kts 299°
2026-05-09 02:42 40.70919 -73.86380 3155 ft 215 kts 258°
2026-05-09 02:43 40.70152 -73.88039 3608 ft 221 kts 216°
2026-05-09 02:43 40.68669 -73.88609 4068 ft 233 kts 177°
2026-05-09 02:43 40.67066 -73.88134 4850 ft 251 kts 168°
2026-05-09 02:43 40.65282 -73.87458 5521 ft 273 kts 168°
2026-05-09 02:44 40.63444 -73.86728 6161 ft 281 kts 168°
2026-05-09 02:44 40.61573 -73.85980 6797 ft 283 kts 168°
2026-05-09 02:44 40.59667 -73.85220 7433 ft 286 kts 168°
2026-05-09 02:44 40.57807 -73.84318 8064 ft 292 kts 160°
2026-05-09 02:45 40.56014 -73.82941 8706 ft 304 kts 149°
2026-05-09 02:45 40.54364 -73.81108 9347 ft 311 kts 136°
2026-05-09 02:45 40.53338 -73.78571 10000 ft 323 kts 103°
2026-05-09 02:45 40.53396 -73.75632 10665 ft 326 kts 70°
2026-05-09 02:46 40.54517 -73.73138 11329 ft 313 kts 36°
2026-05-09 02:46 40.56331 -73.71796 11981 ft 294 kts
2026-05-09 02:46 40.58307 -73.71257 12637 ft 299 kts 13°
2026-05-09 02:46 40.60121 -73.69715 13305 ft 317 kts 29°
2026-05-09 02:47 40.61866 -73.67930 13937 ft 319 kts 28°
2026-05-09 02:47 40.63633 -73.66153 14564 ft 322 kts 28°
2026-05-09 02:47 40.65406 -73.64368 15194 ft 323 kts 28°
2026-05-09 02:47 40.67215 -73.62553 15829 ft 328 kts 28°
2026-05-09 02:48 40.69043 -73.60725 16455 ft 331 kts 28°
2026-05-09 02:48 40.70868 -73.58902 17074 ft 336 kts 28°
2026-05-09 02:48 40.72755 -73.57027 17708 ft 338 kts 28°
2026-05-09 02:48 40.74630 -73.55167 18316 ft 344 kts 28°
2026-05-09 02:49 40.76581 -73.53237 18975 ft 346 kts 27°
2026-05-09 02:49 40.78523 -73.51323 19620 ft 352 kts 27°
2026-05-09 02:49 40.80485 -73.49393 20267 ft 355 kts 27°
2026-05-09 02:49 40.82492 -73.47427 20900 ft 358 kts 26°
2026-05-09 02:50 40.84511 -73.45464 20990 ft 367 kts 26°
2026-05-09 02:50 40.86669 -73.43401 21033 ft 399 kts 26°
2026-05-09 02:50 40.89024 -73.41215 21023 ft 432 kts 25°
2026-05-09 02:50 40.91600 -73.38873 21009 ft 458 kts 25°
2026-05-09 02:51 40.94229 -73.36510 21014 ft 464 kts 26°
2026-05-09 02:51 40.96951 -73.34066 20988 ft 467 kts 26°
2026-05-09 02:51 40.99641 -73.31647 20986 ft 463 kts 26°
2026-05-09 02:51 41.02301 -73.29247 20985 ft 461 kts 26°
2026-05-09 02:52 41.04956 -73.26848 20993 ft 462 kts 26°
2026-05-09 02:52 41.07586 -73.24466 20980 ft 460 kts 26°
2026-05-09 02:52 41.10213 -73.22085 20989 ft 460 kts 26°
2026-05-09 02:52 41.12897 -73.19653 20995 ft 462 kts 26°
2026-05-09 02:53 41.15557 -73.17237 20986 ft 460 kts 27°
2026-05-09 02:53 41.18177 -73.14819 20982 ft 458 kts 22°
2026-05-09 02:53 41.20970 -73.12940 21001 ft 451 kts 18°
2026-05-09 02:53 41.23806 -73.11122 20995 ft 452 kts 17°
2026-05-09 02:54 41.26619 -73.09322 20997 ft 450 kts 17°
2026-05-09 02:54 41.29433 -73.07528 20997 ft 450 kts 17°
2026-05-09 02:54 41.32288 -73.05705 20998 ft 453 kts 18°
2026-05-09 02:54 41.35119 -73.03907 20989 ft 453 kts 17°
2026-05-09 02:55 41.37906 -73.01907 20972 ft 462 kts 28°
2026-05-09 02:55 41.40089 -72.98880 20972 ft 456 kts 50°
2026-05-09 02:55 41.41338 -72.95058 20983 ft 446 kts 70°
2026-05-09 02:55 41.41782 -72.90992 20985 ft 442 kts 84°
2026-05-09 02:56 41.41900 -72.86964 21000 ft 437 kts 84°
2026-05-09 02:56 41.42064 -72.82922 20990 ft 439 kts 84°
2026-05-09 02:56 41.42226 -72.78826 21009 ft 453 kts 84°
2026-05-09 02:56 41.42405 -72.74496 21013 ft 485 kts 84°
2026-05-09 02:57 41.42588 -72.69943 21022 ft 503 kts 84°
2026-05-09 02:57 41.42777 -72.65234 21012 ft 507 kts 84°
2026-05-09 02:57 41.42977 -72.60560 20995 ft 506 kts 84°
2026-05-09 02:57 41.43186 -72.55932 21003 ft 504 kts 83°
2026-05-09 02:58 41.43400 -72.51296 20990 ft 501 kts 82°
2026-05-09 02:58 41.43700 -72.46673 21008 ft 502 kts 82°
2026-05-09 02:58 41.44017 -72.42036 21000 ft 500 kts 82°
2026-05-09 02:58 41.44315 -72.37540 20245 ft 493 kts 82°
2026-05-09 02:59 41.44622 -72.33006 19398 ft 486 kts 82°
2026-05-09 02:59 41.44933 -72.28588 18639 ft 477 kts 82°
2026-05-09 02:59 41.45419 -72.24268 17654 ft 468 kts 70°
2026-05-09 02:59 41.46515 -72.20267 16884 ft 457 kts 65°
2026-05-09 03:00 41.47626 -72.16351 16005 ft 453 kts 65°
2026-05-09 03:00 41.48821 -72.12517 15079 ft 445 kts 61°
2026-05-09 03:00 41.49926 -72.08644 14200 ft 444 kts 66°
2026-05-09 03:00 41.50948 -72.04847 13493 ft 435 kts 66°
2026-05-09 03:01 41.51982 -72.01054 12637 ft 431 kts 66°
2026-05-09 03:01 41.52999 -71.97368 11940 ft 423 kts 66°
2026-05-09 03:01 41.54032 -71.93707 11127 ft 417 kts 64°
2026-05-09 03:01 41.55260 -71.90277 10371 ft 408 kts 58°
2026-05-09 03:02 41.56618 -71.86960 9617 ft 401 kts 57°
2026-05-09 03:02 41.57930 -71.83759 8829 ft 398 kts 57°
2026-05-09 03:02 41.59255 -71.80555 8124 ft 392 kts 57°
2026-05-09 03:02 41.60582 -71.77365 7892 ft 390 kts 57°
2026-05-09 03:03 41.61902 -71.74199 7908 ft 391 kts 57°
2026-05-09 03:03 41.63236 -71.71001 7917 ft 390 kts 57°
2026-05-09 03:03 41.64544 -71.67866 7849 ft 388 kts 57°
2026-05-09 03:03 41.65876 -71.64683 7907 ft 388 kts 57°
2026-05-09 03:04 41.67193 -71.61540 7911 ft 389 kts 57°
2026-05-09 03:04 41.68509 -71.58399 7886 ft 391 kts 57°
2026-05-09 03:04 41.69834 -71.55225 7911 ft 390 kts 57°
2026-05-09 03:04 41.71080 -71.51984 7905 ft 390 kts 61°
2026-05-09 03:05 41.72249 -71.48715 7915 ft 391 kts 61°
2026-05-09 03:05 41.73414 -71.45464 7917 ft 391 kts 60°
2026-05-09 03:05 41.74590 -71.42166 7909 ft 391 kts 61°
2026-05-09 03:05 41.75758 -71.38914 7908 ft 390 kts 61°
2026-05-09 03:06 41.76930 -71.35658 7920 ft 388 kts 61°
2026-05-09 03:06 41.78189 -71.32451 7909 ft 388 kts 56°
2026-05-09 03:06 41.79556 -71.29336 7920 ft 387 kts 57°
2026-05-09 03:06 41.80922 -71.26234 7904 ft 388 kts 56°
2026-05-09 03:07 41.82286 -71.23131 7913 ft 386 kts 56°
2026-05-09 03:07 41.83651 -71.20031 7919 ft 385 kts 56°
2026-05-09 03:07 41.85019 -71.16941 7903 ft 385 kts 56°
2026-05-09 03:07 41.86375 -71.13879 7903 ft 383 kts 56°
2026-05-09 03:08 41.87744 -71.10786 7894 ft 382 kts 56°
2026-05-09 03:08 41.89199 -71.07855 7880 ft 377 kts 44°
2026-05-09 03:08 41.91169 -71.05518 7905 ft 374 kts 36°
2026-05-09 03:08 41.93156 -71.03286 7895 ft 375 kts 36°
2026-05-09 03:09 41.95172 -71.01033 7887 ft 376 kts 36°
2026-05-09 03:09 41.97155 -70.98817 7384 ft 368 kts 36°
2026-05-09 03:09 41.99112 -70.96658 6574 ft 363 kts 36°
2026-05-09 03:09 42.01059 -70.94537 5804 ft 359 kts 36°
2026-05-09 03:10 42.03004 -70.92432 5121 ft 358 kts 36°
2026-05-09 03:10 42.04917 -70.90384 4987 ft 343 kts 36°
2026-05-09 03:10 42.06724 -70.88443 4973 ft 319 kts 36°
2026-05-09 03:10 42.08588 -70.87067 4971 ft 301 kts 17°
2026-05-09 03:11 42.10567 -70.86162 4984 ft 297 kts 16°
2026-05-09 03:11 42.12516 -70.85274 4989 ft 297 kts 16°
2026-05-09 03:11 42.14482 -70.84377 4990 ft 297 kts 16°
2026-05-09 03:11 42.16451 -70.83475 4987 ft 298 kts 16°
2026-05-09 03:12 42.18442 -70.82856 4969 ft 293 kts 356°
2026-05-09 03:12 42.20394 -70.83567 5006 ft 288 kts 334°
2026-05-09 03:12 42.22326 -70.84321 4941 ft 283 kts 345°
2026-05-09 03:12 42.24192 -70.84837 3196 ft 286 kts 346°
2026-05-09 03:13 42.27340 -70.87341 1450 ft 269 kts 304°
2026-05-09 03:13 42.28397 -70.89423 1386 ft 257 kts 303°
2026-05-09 03:13 42.29400 -70.91141 1108 ft 217 kts 314°
2026-05-09 03:14 42.30430 -70.92408 735 ft 188 kts 317°
2026-05-09 03:14 42.31347 -70.93615 383 ft 183 kts 311°
2026-05-09 03:14 42.32205 -70.94827 222 ft 173 kts 313°
2026-05-09 03:14 42.33101 -70.96013 341 ft 192 kts 315°
2026-05-09 03:15 42.34085 -70.97265 262 ft 194 kts 314°
2026-05-09 03:15 42.35032 -70.98573 106 ft 195 kts 314°
2026-05-09 03:15 42.35910 -70.99757 11 ft 153 kts 314°
2026-05-09 03:15 42.36462 -71.00491 13 ft 53 kts 315°
2026-05-09 03:16 42.36606 -71.00850 13 ft 7 kts 289°
2026-05-09 03:16 42.36607 -71.00852 13 ft 0 kts 289°
2026-05-09 03:17 42.36607 -71.00853 13 ft 1 kts 289°
2026-05-09 03:17 42.36644 -71.01076 13 ft 30 kts 270°
2026-05-09 03:17 42.36656 -71.01153 13 ft 0 kts 284°
2026-05-09 03:17 42.36649 -71.01180 14 ft 2 kts 227°
2026-05-09 03:18 42.36569 -71.01220 15 ft 23 kts 201°
2026-05-09 03:18 42.36346 -71.01327 17 ft 38 kts 200°
2026-05-09 03:18 42.36107 -71.01444 17 ft 34 kts 200°
2026-05-09 03:18 42.35896 -71.01547 19 ft 30 kts 199°
2026-05-09 03:19 42.35704 -71.01636 17 ft 28 kts 200°
2026-05-09 03:19 42.35640 -71.01665 17 ft 0 kts 163°
2026-05-09 03:19 42.35602 -71.01690 17 ft 20 kts 223°
2026-05-09 03:19 42.35602 -71.01985 16 ft 46 kts 298°
2026-05-09 03:20 42.35656 -71.02316 13 ft 28 kts 181°
2026-05-09 03:20 42.35565 -71.02148 13 ft 51 kts 126°
2026-05-09 03:20 42.35141 -71.01351 17 ft 149 kts 125°
2026-05-09 03:20 42.34439 -71.00002 212 ft 190 kts 125°
2026-05-09 03:21 42.33717 -70.98437 867 ft 218 kts 122°
2026-05-09 03:21 42.32660 -70.97051 875 ft 207 kts 167°
2026-05-09 03:21 42.31349 -70.97295 857 ft 182 kts 213°
2026-05-09 03:21 42.30628 -70.98556 853 ft 176 kts 263°
2026-05-09 03:22 42.30935 -71.00115 632 ft 177 kts 303°
2026-05-09 03:22 42.31766 -71.01347 463 ft 190 kts 338°
2026-05-09 03:22 42.33024 -71.01527 248 ft 177 kts 356°
2026-05-09 03:22 42.34291 -71.01529 83 ft 181 kts 10°
2026-05-09 03:23 42.35400 -71.01044 18 ft 121 kts 20°
2026-05-09 03:23 42.35793 -71.00889 17 ft 32 kts 304°
2026-05-09 03:23 42.35828 -71.01168 17 ft 0 kts 278°
2026-05-09 03:23 42.35843 -71.01257 18 ft 21 kts 284°
2026-05-09 03:24 42.35850 -71.01299 19 ft 0 kts 280°
2026-05-09 03:25 42.35850 -71.01303 19 ft 0 kts 279°
2026-05-09 03:25 42.35862 -71.01397 20 ft 6 kts 278°
2026-05-09 03:26 42.35862 -71.01399 19 ft 0 kts 278°
2026-05-09 03:26 42.35870 -71.01466 19 ft 16 kts 279°
2026-05-09 03:26 42.35993 -71.01498 17 ft 38 kts 20°
2026-05-09 03:26 42.36346 -71.01327 17 ft 65 kts 19°
2026-05-09 03:27 42.36663 -71.01174 14 ft 30 kts 19°
2026-05-09 03:27 42.36895 -71.01289 13 ft 51 kts 315°
2026-05-09 03:27 42.37033 -71.01560 13 ft 5 kts 211°
2026-05-09 03:27 42.36996 -71.01550 13 ft 18 kts 137°
2026-05-09 03:28 42.36974 -71.01520 13 ft 0 kts 137°
2026-05-09 03:28 42.36934 -71.01470 13 ft 23 kts 135°
2026-05-09 03:29 42.36862 -71.01369 13 ft 11 kts 134°
2026-05-09 03:29 42.36858 -71.01363 13 ft 0 kts 135°
2026-05-09 03:29 42.36846 -71.01345 13 ft 13 kts 127°
2026-05-09 03:30 42.36772 -71.01144 13 ft 23 kts 165°
2026-05-09 03:30 42.36678 -71.01169 13 ft 3 kts 200°
2026-05-09 03:30 42.36643 -71.01054 13 ft 30 kts 118°
2026-05-09 03:30 42.36591 -71.00793 13 ft 29 kts 107°
2026-05-09 03:31 42.36507 -71.00560 13 ft 0 kts 129°
2026-05-09 03:32 42.36415 -71.00550 13 ft 20 kts 195°
2026-05-09 03:32 42.36092 -71.00700 13 ft 98 kts 200°
2026-05-09 03:32 42.35190 -71.01128 28 ft 172 kts 200°
2026-05-09 03:32 42.33958 -71.01614 500 ft 192 kts 196°
2026-05-09 03:33 42.32571 -71.02032 1233 ft 218 kts 193°
2026-05-09 03:33 42.31017 -71.02406 2152 ft 239 kts 192°
2026-05-09 03:33 42.29340 -71.02760 3259 ft 249 kts 190°